Weather Roundup
Issued by NWS

Home | Current Version | Previous Version | Graphics & Text | Print | Product List | Glossary Off
Versions: 1 2 3 4 5 6 7 8 9 10 11 12 13 14 15 16 17 18 19 20 21 22 23 24 25 26 27 28 29 30 31 32 33 34 35 36 37 38 39 40 41 42 43 44 45 46 47 48 49 50

000
NZUS93 KARX 281759
HRRWXR

CURRENT HOURLY OBSERVATIONS ACROSS
MUCH OF THE UPPER MISSISSIPPI VALLEY
NATIONAL WEATHER SERVICE LA CROSSE WI
1200 PM CST TUE FEB 28 2017


...SOUTHEAST MINNESOTA...


CITY           SKY/WX    TMP DP  RH WIND       PRES   REMARKS
ROCHESTER      FOG       39  37  92 NE8       29.64F VSB 1   WCI  33
ROCHESTER/MAYO CLOUDY    41  40  97 NE3       29.65F
WINONA         CLOUDY    41  37  87 NE6       29.68S
AUSTIN         CLOUDY    39  36  87 NE8       29.63F WCI  34
ALBERT LEA     CLOUDY    37  36  93 NE10      29.63F FOG     WCI  30
DODGE CENTER   NOT AVBL
PRESTON        FOG       38  37  96 N7        29.64F VSB 1/2 WCI  32
OWATONNA       MOSUNNY   39  36  87 NE9       29.65F WCI  33
FARIBAULT      CLOUDY    39  36  87 N8        29.68S WCI  34
$$

...ELSEWHERE IN MINNESOTA...


CITY           SKY/WX    TMP DP  RH WIND       PRES   REMARKS
MINNEAPOLIS    CLOUDY    45  32  60 NE12G26   29.68F
INTNL FALLS    SUNNY     23  14  68 NE9       29.90F WCI  13
DULUTH         LGT SNOW  32  29  88 NE16      29.78S FOG     WCI  21
RED WING       CLOUDY    43  34  70 E7        29.68F
REDWOOD FALLS  MOSUNNY   44  32  62 N12       29.69S
MANKATO          N/A     44  37  76 NE9       29.66F
WORTHINGTON    CLOUDY    38  33  82 N14       29.66F WCI  30
FAIRMONT       MOSUNNY   38  34  85 N12       29.66S WCI  30
$$

...SOUTHWEST WISCONSIN...


CITY           SKY/WX    TMP DP  RH WIND       PRES   REMARKS
LA CROSSE      CLOUDY    45  41  86 CALM      29.66F
PRAIRIE DU CHI CLOUDY    43  42  97 CALM      29.64F FOG
BOSCOBEL       CLOUDY    45  44  97 NE3       29.65F FOG
LONE ROCK      CLOUDY    46  45  93 CALM      29.67F FOG
PLATTEVILLE    CLOUDY    56  56 100 S12G18    29.65F
FORT MC COY    CLOUDY    41  40  95 E6        29.69S FOG
MAUSTON-NEW LI FOG       41  41  99 SE3       29.66F VSB 1/2
VIROQUA        CLOUDY    42  42 100 E7        29.64F VSB<1/4
WIS DELLS      LGT RAIN  42  41  97 E3        29.67F VSB 1/4
$$

...ELSEWHERE IN WISCONSIN...


CITY           SKY/WX    TMP DP  RH WIND       PRES   REMARKS
MILWAUKEE      CLOUDY    50  47  89 S8        29.69F FOG
MADISON        FOG       46  45  96 N7        29.67S VSB 1/2
GREEN BAY      LGT RAIN  40  40 100 NE3       29.71F VSB 1/4
EAU CLAIRE     NOT AVBL
BLACK RVR FLS  CLOUDY    41  41 100 NE3       29.67F FOG
MEDFORD        CLOUDY    38  36  92 E8        29.69F FOG     WCI  32
WAUSAU         CLOUDY    39  38  96 E5        29.69F FOG
WIS RAPIDS     FOG       39  39 100 E6        29.70F VSB 1/2 WCI  35
MARSHFIELD     FOG       38  37  97 NE8       29.67F VSB 1/4 WCI  32
RICE LAKE      CLOUDY    40  35  83 N9        29.72F WCI  33
$$

...NORTHEAST IOWA...


CITY           SKY/WX    TMP DP  RH WIND       PRES   REMARKS
WATERLOO       CLOUDY    57  51  80 NW6       29.59F
DUBUQUE        CLOUDY    58  54  86 S16       29.63F
DECORAH        FOG       43  43 100 CALM      29.62F VSB 1/2
MASON CITY     CLOUDY    38  35  89 N7        29.65R WCI  33
CHARLES CITY   FOG       39  39 100 N6        29.62S VSB<1/4 WCI  35
OELWEIN        CLOUDY    57  57 100 S8        29.61F
$$

...ELSEWHERE IN IOWA...


CITY           SKY/WX    TMP DP  RH WIND       PRES   REMARKS
DES MOINES     CLOUDY    64  43  46 W10       29.59F
IOWA CITY      CLOUDY    66  58  75 S10       29.62F
FORT DODGE     CLOUDY    37  34  87 N9        29.64F WCI  31
MARSHALLTOWN   CLOUDY    60  47  61 SW12      29.59S
CEDAR RAPIDS   CLOUDY    62  56  80 S15       29.60F
$$

...NORTHERN ILLINOIS...


CITY           SKY/WX    TMP DP  RH WIND       PRES   REMARKS
CHICAGO-OHARE  CLOUDY    56  51  84 S18       29.73F
CHICAGO-MIDWAY CLOUDY    56  51  84 S17       29.75F
MOLINE         PTSUNNY   64  56  75 S14       29.65F
ROCKFORD       CLOUDY    57  53  86 S14       29.70F
PEORIA         CLOUDY    61  57  87 S12       29.72F
$$

NOTE: "FAIR" INDICATES FEW OR NO CLOUDS BELOW 12,000 FEET WITH NO
SIGNIFICANT WEATHER AND/OR OBSTRUCTIONS TO VISIBILITY. WIND
SPEEDS ARE IN MILES-PER-HOUR.




USA.gov is the U.S. government's official web portal to all federal, state and local government web resources and services.